| time (UTC) | temp F | wind direction | speed MPH | gust MPH | rain 1hr in | rain 24hr in | rain mn in | humidity % | barometer mb |
| 20260903104148 | 76 | 113 | 2.0 | 6.0 | 0.00 | 0.01 | 0.00 | 57 | 1019.7 |
| 20260903103535 | 74 | 147 | 3.0 | 8.0 | 0.00 | 0.01 | 0.00 | 59 | 1020.0 |
| 20260903102535 | 75 | 245 | 1.0 | 5.0 | 0.00 | 0.01 | 0.00 | 63 | 1020.0 |
| 20260903101148 | 73 | 135 | 3.0 | 8.0 | 0.00 | 0.01 | 0.00 | 62 | 1020.4 |
| 20260903100535 | 73 | 139 | 3.0 | 8.0 | 0.00 | 0.01 | 0.00 | 63 | 1020.5 |
| 20260903095535 | 73 | 179 | 3.0 | 9.0 | 0.00 | 0.01 | 0.00 | 65 | 1020.6 |
| 20260903094147 | 73 | 180 | 4.0 | 9.0 | 0.00 | 0.01 | 0.00 | 65 | 1020.9 |
| 20260903093535 | 73 | 202 | 1.0 | 6.0 | 0.00 | 0.01 | 0.00 | 65 | 1021.1 |
| 20260903091148 | 70 | 269 | 4.0 | 8.0 | 0.00 | 0.01 | 0.00 | 66 | 1021.6 |
| 20260903090535 | 69 | 224 | 2.0 | 6.0 | 0.00 | 0.01 | 0.00 | 68 | 1021.7 |
| 20260903085535 | 68 | 268 | 2.0 | 6.0 | 0.00 | 0.01 | 0.00 | 72 | 1021.9 |
| 20260903084147 | 69 | 261 | 3.0 | 8.0 | 0.00 | 0.01 | 0.00 | 73 | 1021.8 |
| 20260903083535 | 67 | 305 | 3.0 | 8.0 | 0.00 | 0.01 | 0.00 | 75 | 1022.0 |
| 20260903082535 | 68 | 262 | 1.0 | 5.0 | 0.00 | 0.01 | 0.00 | 74 | 1022.0 |
| 20260903081148 | 67 | 269 | 1.0 | 6.0 | 0.00 | 0.01 | 0.00 | 76 | 1022.1 |
| 20260903080535 | 67 | 252 | 1.0 | 4.0 | 0.00 | 0.01 | 0.00 | 76 | 1022.2 |
| 20260903075535 | 67 | 251 | 1.0 | 4.0 | 0.00 | 0.01 | 0.00 | 77 | 1022.2 |
| 20260903074148 | 65 | 248 | 1.0 | 6.0 | 0.00 | 0.01 | 0.00 | 80 | 1022.5 |
| 20260903073534 | 64 | 230 | 2.0 | 6.0 | 0.00 | 0.01 | 0.00 | 82 | 1022.5 |
| 20260903072534 | 64 | 245 | 2.0 | 6.0 | 0.00 | 0.01 | 0.00 | 82 | 1022.7 |
| 20260903071148 | 64 | 286 | 3.0 | 6.0 | 0.00 | 0.01 | 0.00 | 82 | 1022.8 |
| 20260903070535 | 64 | 311 | 1.0 | 4.0 | 0.00 | 0.01 | 0.00 | 83 | 1022.7 |
| 20260903065535 | 63 | 294 | 1.0 | 3.0 | 0.00 | 0.01 | 0.00 | 84 | 1022.8 |
| 20260903064147 | 62 | 285 | 1.0 | 4.0 | 0.00 | 0.01 | 0.00 | 86 | 1022.8 |
| 20260903063534 | 62 | 285 | 2.0 | 3.0 | 0.00 | 0.01 | 0.00 | 88 | 1022.9 |
| 20260903062535 | 61 | 291 | 2.0 | 4.0 | 0.00 | 0.01 | 0.00 | 90 | 1022.8 |
| 20260903061148 | 60 | 303 | 2.0 | 3.0 | 0.00 | 0.01 | 0.00 | 92 | 1022.8 |
| 20260903060535 | 59 | 314 | 2.0 | 3.0 | 0.00 | 0.01 | 0.00 | 93 | 1022.9 |
| 20260903055534 | 59 | 323 | 2.0 | 4.0 | 0.00 | 0.01 | 0.00 | 93 | 1022.8 |
| 20260903054147 | 59 | 307 | 3.0 | 4.0 | 0.00 | 0.01 | 0.00 | 93 | 1022.8 |
| 20260903053535 | 59 | 310 | 4.0 | 6.0 | 0.00 | 0.01 | 0.00 | 93 | 1022.8 |
| 20260903052535 | 59 | 314 | 3.0 | 5.0 | 0.00 | 0.01 | 0.00 | 93 | 1022.6 |
| 20260903051148 | 59 | 325 | 3.0 | 4.0 | 0.00 | 0.01 | 0.00 | 93 | 1022.6 |
| 20260903050534 | 59 | 329 | 4.0 | 5.0 | 0.00 | 0.01 | 0.00 | 94 | 1022.6 |
| 20260903045535 | 59 | 307 | 3.0 | 6.0 | 0.00 | 0.01 | 0.00 | 94 | 1022.5 |
| 20260903044147 | 59 | 312 | 5.0 | 8.0 | 0.00 | 0.01 | 0.00 | 94 | 1022.5 |
| 20260903043534 | 59 | 302 | 5.0 | 7.0 | 0.00 | 0.01 | 0.00 | 94 | 1022.4 |
| 20260903042535 | 59 | 291 | 6.0 | 7.0 | 0.00 | 0.01 | 0.00 | 95 | 1022.4 |
| 20260903041147 | 59 | 302 | 4.0 | 7.0 | 0.00 | 0.01 | 0.00 | 94 | 1022.4 |
| 20260903040535 | 59 | 297 | 5.0 | 8.0 | 0.00 | 0.01 | 0.00 | 95 | 1022.2 |
| 20260903035535 | 59 | 315 | 5.0 | 8.0 | 0.00 | 0.01 | 0.00 | 94 | 1022.2 |
| 20260903034534 | 60 | 325 | 5.0 | 7.0 | 0.00 | 0.01 | 0.00 | 94 | 1022.0 |
| 20260903033535 | 60 | 322 | 4.0 | 6.0 | 0.00 | 0.01 | 0.00 | 93 | 1021.8 |
| 20260903032535 | 60 | 329 | 2.0 | 4.0 | 0.00 | 0.01 | 0.00 | 93 | 1021.8 |
| 20260903031148 | 60 | 315 | 3.0 | 6.0 | 0.00 | 0.01 | 0.00 | 93 | 1021.8 |
| 20260903030535 | 60 | 299 | 4.0 | 5.0 | 0.00 | 0.01 | 0.00 | 93 | 1021.9 |
| 20260903025535 | 60 | 317 | 3.0 | 5.0 | 0.00 | 0.01 | 0.00 | 94 | 1021.9 |
| 20260903024535 | 61 | 331 | 3.0 | 4.0 | 0.00 | 0.01 | 0.00 | 93 | 1022.1 |
| 20260903023535 | 61 | 333 | 2.0 | 4.0 | 0.00 | 0.01 | 0.00 | 93 | 1021.8 |
| 20260903022535 | 61 | 336 | 3.0 | 4.0 | 0.00 | 0.01 | 0.00 | 92 | 1022.0 |
| 20260903021147 | 62 | 334 | 2.0 | 3.0 | 0.00 | 0.01 | 0.00 | 92 | 1021.8 |
| 20260903020535 | 62 | 1 | 3.0 | 5.0 | 0.00 | 0.01 | 0.00 | 91 | 1022.0 |
| 20260903015535 | 62 | 338 | 1.0 | 4.0 | 0.00 | 0.01 | 0.00 | 90 | 1021.7 |
| 20260903014147 | 63 | 359 | 2.0 | 3.0 | 0.00 | 0.01 | 0.00 | 89 | 1021.7 |
| 20260903013533 | 63 | 332 | 1.0 | 3.0 | 0.00 | 0.01 | 0.00 | 88 | 1021.6 |
| 20260903012534 | 63 | 330 | 2.0 | 4.0 | 0.00 | 0.01 | 0.00 | 88 | 1021.6 |
| 20260903011148 | 63 | 270 | 3.0 | 7.0 | 0.00 | 0.01 | 0.00 | 88 | 1021.5 |
| 20260903010535 | 64 | 269 | 3.0 | 5.0 | 0.00 | 0.01 | 0.00 | 87 | 1021.6 |
| 20260903005535 | 64 | 230 | 4.0 | 9.0 | 0.00 | 0.01 | 0.00 | 86 | 1021.4 |
| 20260903004148 | 64 | 292 | 2.0 | 7.0 | 0.00 | 0.01 | 0.00 | 86 | 1021.5 |
| 20260903003535 | 64 | 342 | 6.0 | 11.0 | 0.00 | 0.01 | 0.00 | 86 | 1021.5 |
| 20260903002535 | 64 | 341 | 6.0 | 9.0 | 0.00 | 0.01 | 0.00 | 87 | 1021.5 |
| 20260903001547 | 64 | 341 | 6.0 | 11.0 | 0.00 | 0.01 | 0.00 | 87 | 1021.8 |
| 20260903000534 | 64 | 312 | 3.0 | 6.0 | 0.00 | 0.01 | 0.00 | 86 | 1021.4 |
| 20260902235534 | 64 | 209 | 4.0 | 8.0 | 0.00 | 0.01 | 0.00 | 86 | 1021.2 |
| 20260902234148 | 64 | 203 | 6.0 | 12.0 | 0.00 | 0.01 | 0.00 | 85 | 1021.4 |
| 20260902233534 | 64 | 160 | 6.0 | 13.0 | 0.00 | 0.01 | 0.00 | 86 | 1021.4 |
| 20260902232534 | 65 | 15 | 4.0 | 9.0 | 0.00 | 0.01 | 0.00 | 84 | 1021.2 |
| 20260902231535 | 64 | 353 | 4.0 | 8.0 | 0.00 | 0.01 | 0.00 | 85 | 1021.8 |
| 20260902230534 | 64 | 321 | 2.0 | 5.0 | 0.00 | 0.01 | 0.00 | 84 | 1021.5 |
| 20260902225535 | 64 | 354 | 1.0 | 2.0 | 0.00 | 0.01 | 0.00 | 84 | 1021.4 |
| 20260902224148 | 64 | 273 | 2.0 | 4.0 | 0.00 | 0.01 | 0.00 | 86 | 1021.4 |
| 20260902223535 | 64 | 309 | 3.0 | 6.0 | 0.00 | 0.01 | 0.00 | 85 | 1021.6 |
| 20260902222535 | 63 | 337 | 5.0 | 9.0 | 0.00 | 0.01 | 0.00 | 87 | 1021.6 |
| 20260902221148 | 64 | 332 | 5.0 | 9.0 | 0.00 | 0.01 | 0.00 | 86 | 1021.3 |
| 20260902220534 | 64 | 307 | 3.0 | 5.0 | 0.00 | 0.01 | 0.01 | 85 | 1021.1 |
| 20260902215535 | 64 | 346 | 2.0 | 3.0 | 0.00 | 0.01 | 0.01 | 84 | 1020.8 |
| 20260902214148 | 64 | 328 | 3.0 | 5.0 | 0.00 | 0.01 | 0.01 | 84 | 1020.8 |
| 20260902213534 | 64 | 339 | 5.0 | 8.0 | 0.00 | 0.01 | 0.01 | 84 | 1020.7 |
| 20260902211148 | 65 | 329 | 4.0 | 6.0 | 0.00 | 0.01 | 0.01 | 85 | 1020.6 |
| 20260902210535 | 65 | 317 | 3.0 | 6.0 | 0.00 | 0.01 | 0.01 | 86 | 1020.2 |
| 20260902205535 | 65 | 322 | 2.0 | 3.0 | 0.00 | 0.01 | 0.01 | 84 | 1020.1 |
| 20260902204149 | 66 | 315 | 4.0 | 6.0 | 0.00 | 0.01 | 0.01 | 83 | 1020.2 |
| 20260902203534 | 66 | 309 | 4.0 | 7.0 | 0.00 | 0.01 | 0.01 | 84 | 1020.1 |
| 20260902202535 | 66 | 306 | 6.0 | 11.0 | 0.00 | 0.01 | 0.01 | 84 | 1020.1 |
| 20260902201148 | 66 | 274 | 7.0 | 11.0 | 0.00 | 0.01 | 0.01 | 84 | 1020.2 |
| 20260902200535 | 66 | 291 | 4.0 | 9.0 | 0.00 | 0.01 | 0.01 | 85 | 1019.9 |
| 20260902195535 | 67 | 357 | 3.0 | 7.0 | 0.00 | 0.01 | 0.01 | 84 | 1019.7 |
| 20260902194148 | 67 | 338 | 5.0 | 8.0 | 0.00 | 0.01 | 0.01 | 84 | 1019.8 |
| 20260902193535 | 68 | 336 | 5.0 | 9.0 | 0.00 | 0.01 | 0.01 | 83 | 1019.9 |
| 20260902192534 | 68 | 346 | 4.0 | 7.0 | 0.01 | 0.01 | 0.01 | 86 | 1019.8 |
| 20260902191148 | 68 | 213 | 5.0 | 9.0 | 0.01 | 0.01 | 0.01 | 85 | 1019.8 |
| 20260902190534 | 67 | 4 | 1.0 | 9.0 | 0.01 | 0.01 | 0.01 | 89 | 1019.6 |
| 20260902185535 | 69 | 338 | 6.0 | 8.0 | 0.01 | 0.01 | 0.01 | 85 | 1019.0 |
| 20260902184148 | 69 | 317 | 6.0 | 11.0 | 0.01 | 0.01 | 0.01 | 84 | 1019.1 |
| 20260902183535 | 69 | 358 | 2.0 | 6.0 | 0.01 | 0.01 | 0.01 | 83 | 1018.8 |
| 20260902182535 | 70 | 335 | 2.0 | 5.0 | 0.01 | 0.01 | 0.01 | 81 | 1018.8 |
| 20260902181148 | 71 | 314 | 5.0 | 6.0 | 0.00 | 0.00 | 0.00 | 77 | 1018.7 |
| 20260902180535 | 72 | 337 | 2.0 | 6.0 | 0.00 | 0.00 | 0.00 | 74 | 1018.4 |
| 20260902175535 | 72 | 353 | 2.0 | 5.0 | 0.00 | 0.00 | 0.00 | 73 | 1018.2 |
| 20260902174148 | 73 | 353 | 2.0 | 4.0 | 0.00 | 0.00 | 0.00 | 68 | 1018.1 |
| 20260902173534 | 73 | 19 | 2.0 | 3.0 | 0.00 | 0.00 | 0.00 | 68 | 1017.7 |
| 20260902172535 | 75 | 35 | 1.0 | 3.0 | 0.00 | 0.00 | 0.00 | 60 | 1017.6 |
| 20260902171148 | 75 | 70 | 2.0 | 4.0 | 0.00 | 0.00 | 0.00 | 59 | 1017.5 |
| 20260902170535 | 75 | 95 | 3.0 | 5.0 | 0.00 | 0.00 | 0.00 | 58 | 1017.5 |
| 20260902165535 | 75 | 106 | 4.0 | 6.0 | 0.00 | 0.00 | 0.00 | 60 | 1017.4 |
| 20260902164148 | 75 | 148 | 3.0 | 7.0 | 0.00 | 0.00 | 0.00 | 58 | 1017.5 |
| 20260902163535 | 76 | 151 | 3.0 | 7.0 | 0.00 | 0.00 | 0.00 | 58 | 1017.4 |
| 20260902162535 | 76 | 118 | 4.0 | 7.0 | 0.00 | 0.00 | 0.00 | 56 | 1017.2 |
| 20260902161148 | 76 | 144 | 5.0 | 10.0 | 0.00 | 0.00 | 0.00 | 58 | 1017.2 |
| 20260902160534 | 76 | 119 | 4.0 | 8.0 | 0.00 | 0.00 | 0.00 | 59 | 1017.4 |
| 20260902155535 | 76 | 134 | 3.0 | 6.0 | 0.00 | 0.00 | 0.00 | 57 | 1017.4 |
| 20260902154148 | 76 | 103 | 2.0 | 7.0 | 0.00 | 0.00 | 0.00 | 56 | 1017.3 |
| 20260902153535 | 77 | 117 | 3.0 | 7.0 | 0.00 | 0.00 | 0.00 | 57 | 1017.4 |
| 20260902152534 | 76 | 128 | 3.0 | 7.0 | 0.00 | 0.00 | 0.00 | 58 | 1017.5 |
| 20260902151148 | 76 | 103 | 2.0 | 6.0 | 0.00 | 0.00 | 0.00 | 58 | 1017.4 |
| 20260902150535 | 76 | 120 | 4.0 | 7.0 | 0.00 | 0.00 | 0.00 | 56 | 1017.4 |
| 20260902145535 | 76 | 50 | 0.0 | 6.0 | 0.00 | 0.00 | 0.00 | 57 | 1017.5 |
| 20260902144148 | 76 | 98 | 3.0 | 7.0 | 0.00 | 0.00 | 0.00 | 55 | 1017.4 |
| 20260902143534 | 76 | 47 | 3.0 | 6.0 | 0.00 | 0.00 | 0.00 | 54 | 1017.6 |
| 20260902142535 | 76 | 83 | 2.0 | 6.0 | 0.00 | 0.00 | 0.00 | 55 | 1017.7 |
| 20260902141148 | 76 | 166 | 4.0 | 9.0 | 0.00 | 0.00 | 0.00 | 54 | 1017.8 |
| 20260902140535 | 76 | 152 | 2.0 | 8.0 | 0.00 | 0.00 | 0.00 | 54 | 1017.8 |
| 20260902135535 | 77 | 73 | 1.0 | 6.0 | 0.00 | 0.00 | 0.00 | 54 | 1017.8 |
| 20260902134147 | 76 | 181 | 4.0 | 8.0 | 0.00 | 0.00 | 0.00 | 54 | 1018.1 |
| 20260902133535 | 76 | 155 | 4.0 | 8.0 | 0.00 | 0.00 | 0.00 | 55 | 1018.2 |
| 20260902132535 | 76 | 167 | 2.0 | 6.0 | 0.00 | 0.00 | 0.00 | 55 | 1018.5 |
| 20260902131148 | 75 | 198 | 2.0 | 8.0 | 0.00 | 0.00 | 0.00 | 57 | 1018.6 |
| 20260902130535 | 75 | 146 | 3.0 | 7.0 | 0.00 | 0.00 | 0.00 | 56 | 1018.9 |
| 20260902125535 | 75 | 137 | 2.0 | 7.0 | 0.00 | 0.00 | 0.00 | 58 | 1018.9 |
| 20260902124147 | 75 | 158 | 3.0 | 8.0 | 0.00 | 0.00 | 0.00 | 60 | 1019.0 |
| 20260902123535 | 75 | 157 | 5.0 | 9.0 | 0.00 | 0.00 | 0.00 | 59 | 1019.2 |
| 20260902122535 | 74 | 169 | 2.0 | 5.0 | 0.00 | 0.00 | 0.00 | 60 | 1019.6 |
| 20260902121148 | 74 | 182 | 4.0 | 8.0 | 0.00 | 0.00 | 0.00 | 60 | 1019.7 |
| 20260902120534 | 74 | 360 | 0.0 | 6.0 | 0.00 | 0.00 | 0.00 | 62 | 1019.7 |
| 20260902115534 | 73 | 118 | 2.0 | 7.0 | 0.00 | 0.00 | 0.00 | 62 | 1020.1 |
| 20260902114148 | 73 | 122 | 3.0 | 7.0 | 0.00 | 0.00 | 0.00 | 61 | 1020.3 |
| 20260902113535 | 73 | 113 | 2.0 | 6.0 | 0.00 | 0.00 | 0.00 | 62 | 1020.5 |
| 20260902112535 | 72 | 169 | 2.0 | 8.0 | 0.00 | 0.00 | 0.00 | 62 | 1020.6 |
| 20260902111148 | 72 | 201 | 2.0 | 7.0 | 0.00 | 0.00 | 0.00 | 64 | 1020.7 |
| 20260902110535 | 71 | 196 | 3.0 | 6.0 | 0.00 | 0.00 | 0.00 | 64 | 1021.0 |
| 20260902105535 | 71 | 185 | 4.0 | 7.0 | 0.00 | 0.00 | 0.00 | 64 | 1021.2 |